"Time","Temp","Dewpoint","Humidity","Pressure","Direction","Speed","Gust","Precip","PrecipRate"
"00:04:59","45.4","41.5","86","29.71","232","0","1.2","0.00","0.00"
"00:09:57","45.1","41.3","86.1","29.71","232","0.5","3","0.00","0.00"
"00:14:56","44.8","41.2","87","29.71","324","0.6","3.5","0.00","0.00"
"00:19:58","44.5","41.2","87.9","29.71","333","0","1.2","0.00","0.00"
"00:24:56","44.4","41.1","88","29.71","339","0.5","4","0.00","0.00"
"00:29:58","44.3","41.2","88.7","29.71","339","0.4","2.3","0.00","0.00"
"00:34:56","44.3","41.2","88.8","29.71","339","0","0","0.00","0.00"
"00:39:59","44.3","41.3","89","29.71","339","0","0","0.00","0.00"
"00:44:57","44.3","41.4","89.3","29.72","247","1.6","3.5","0.00","0.00"
"00:49:59","44.3","41.6","90","29.72","212","2.7","6","0.00","0.00"
"00:54:57","44.5","41.7","90","29.72","204","3.3","5.8","0.00","0.00"
"00:59:59","44.6","41.8","90","29.74","227","3.5","6","0.02","0.02"
"01:04:56","44.6","42","90.5","29.74","212","3.9","6","0.04","0.04"
"01:09:57","44.4","41.6","89.7","29.74","239","1.8","4.6","0.06","0.06"
"01:14:56","44.3","41.6","90","29.74","261","1.8","4","0.06","0.06"
"01:19:58","44","41.3","90","29.73","215","0.5","2.3","0.06","0.06"
"01:24:59","43.9","41.2","90.2","29.73","235","1","4","0.06","0.06"
"01:29:57","43.8","41.1","90","29.73","315","0.9","4","0.06","0.06"
"01:34:59","43.6","40.9","90","29.72","325","1.5","5","0.06","0.06"
"01:39:58","43.4","40.7","90","29.72","335","0.2","2.3","0.06","0.06"
"01:44:56","43.2","40.5","90","29.72","335","0","1.2","0.06","0.06"
"01:49:58","43","40.3","90","29.71","335","0","0","0.06","0.06"
"01:54:57","42.8","40.3","90.8","29.71","335","0","0","0.06","0.06"
"01:59:59","42.7","40.4","91.3","29.71","335","0","0","0.06","0.06"
"02:04:57","42.7","40.5","92","29.70","335","0","1.2","0.06","0.04"
"02:09:59","42.8","40.6","92","29.70","335","0","0","0.06","0.02"
"02:14:58","42.8","40.6","92","29.70","335","0","0","0.06","0.00"
"02:19:56","42.8","40.6","92","29.70","335","0","0","0.06","0.00"
"02:24:58","42.7","40.7","92.5","29.70","335","0.1","1.2","0.07","0.01"
"02:29:56","42.7","40.7","92.8","29.70","335","0","1.2","0.07","0.01"
"02:34:58","42.6","40.7","93","29.69","335","0","0","0.07","0.01"
"02:39:57","42.6","40.7","93","29.69","335","0","0","0.07","0.01"
"02:44:59","42.6","40.7","93.2","29.70","335","0","0","0.07","0.01"
"02:49:57","42.5","40.9","93.9","29.70","335","0","0","0.07","0.01"
"02:54:59","42.5","40.9","94","29.70","335","0","0","0.07","0.01"
"02:59:57","42.5","40.9","94","29.70","335","0","0","0.07","0.01"
"03:04:59","42.5","40.9","94","29.70","335","0","0","0.07","0.01"
"03:09:57","42.5","40.9","94","29.70","335","0","0","0.07","0.01"
"03:14:56","42.5","40.9","94","29.70","335","0","0","0.07","0.01"
"03:19:58","42.5","40.9","94","29.70","335","0","1","0.07","0.01"
"03:24:56","42.5","40.9","94","29.70","335","0.7","2.3","0.07","0.01"
"03:29:58","42.5","41.1","94.5","29.71","323","1.5","3","0.07","0.00"
"03:34:56","42.6","41.3","95","29.71","265","1","3.5","0.07","0.00"
"03:39:59","42.6","41.3","95","29.71","265","0.3","2.3","0.08","0.01"
"03:44:57","42.6","41.1","94.3","29.71","265","0.3","1.2","0.08","0.01"
"03:49:58","42.5","40.9","94","29.70","265","0.1","1.2","0.08","0.01"
"03:54:56","42.5","40.9","94","29.70","265","0.2","2.3","0.08","0.01"
"03:59:58","42.5","40.9","94.2","29.70","265","0.1","2.3","0.08","0.01"
"04:04:56","42.4","40.9","94.3","29.70","265","0.1","1.2","0.08","0.01"
"04:09:58","42.4","40.8","94","29.70","265","0","1.2","0.08","0.01"
"04:14:56","42.4","40.8","94","29.70","265","0","1","0.08","0.01"
"04:19:58","42.4","40.8","94","29.69","265","0","1.2","0.08","0.01"
"04:24:56","42.2","40.6","94","29.69","265","0","0","0.08","0.01"
"04:29:58","42.1","40.5","94","29.69","265","0","0","0.08","0.01"
"04:34:56","42","40.4","94","29.69","265","0","0","0.08","0.01"
"04:39:58","41.9","40.3","94","29.69","265","0","0","0.08","0.01"
"04:44:57","41.8","40.2","94","29.69","265","0","0","0.08","0.00"
"04:49:59","41.7","40.1","94","29.69","265","0","0","0.08","0.00"
"04:54:57","41.7","40.2","94.6","29.69","265","0","0","0.08","0.00"
"04:59:59","41.7","40.4","95","29.69","265","0","0","0.08","0.00"
"05:04:56","41.6","40.3","95","29.69","265","0","0","0.08","0.00"
"05:09:59","41.7","40.4","95","29.69","265","0","0","0.08","0.00"
"05:14:58","41.8","40.5","95","29.69","265","0","0","0.08","0.00"
"05:19:56","41.9","40.6","95","29.69","265","0","0","0.08","0.00"
"05:24:58","41.9","40.6","95","29.69","265","0","0","0.08","0.00"
"05:29:56","41.9","40.6","95","29.69","265","0","0","0.08","0.00"
"05:34:58","41.9","40.6","95","29.69","265","0","0","0.08","0.00"
"05:39:57","41.8","40.5","95","29.69","265","0","0","0.08","0.00"
"05:44:59","41.7","40.4","95","29.69","265","0","0","0.08","0.00"
"05:49:58","41.7","40.4","95","29.69","265","0","0","0.08","0.00"
"05:54:56","41.6","40.3","95","29.69","265","0","0","0.08","0.00"
"05:59:58","41.5","40.2","95","29.70","265","0","0","0.08","0.00"
"06:04:59","41.5","40.2","95","29.70","265","0","0","0.08","0.00"
"06:09:59","41.3","40.1","95","29.70","265","0","0","0.08","0.00"
"06:14:57","41.2","39.9","95","29.70","265","0","0","0.08","0.00"
"06:19:59","41","39.7","95","29.70","265","0","0","0.08","0.00"
"06:24:57","40.9","39.6","95","29.70","265","0","0","0.08","0.00"
"06:29:59","40.7","39.4","95","29.70","265","0","0","0.08","0.00"
"06:34:57","40.6","39.3","95","29.70","265","0.4","1.2","0.08","0.00"
"06:39:56","40.5","39.2","95","29.70","265","0","0","0.08","0.00"
"06:44:59","40.4","39.1","95","29.71","265","0","0","0.08","0.00"
"06:49:57","40.3","39","95","29.71","265","0","0","0.08","0.00"
"06:54:59","40.2","38.9","95","29.71","265","0","0","0.08","0.00"
"06:59:57","40.2","38.9","95","29.71","265","0","0","0.08","0.00"
"07:04:59","40.2","39.1","95.4","29.71","265","0","0","0.08","0.00"
"07:09:57","40.3","39.3","96","29.71","265","0","0","0.08","0.00"
"07:14:56","40.4","39.4","96","29.72","265","0","0","0.08","0.00"
"07:19:57","40.7","39.6","96","29.72","265","0","0","0.08","0.00"
"07:24:59","40.9","39.8","96","29.72","265","0","0","0.08","0.00"
"07:29:57","41.1","40","96","29.73","265","0","0","0.08","0.00"
"07:34:59","41.4","40.3","96","29.73","265","0","0","0.08","0.00"
"07:39:58","41.7","40.7","96.4","29.73","265","0","0","0.08","0.00"
"07:44:57","41.9","41.1","97","29.73","265","0","0","0.08","0.00"
"07:49:59","42.3","41.5","97","29.73","265","0","0","0.08","0.00"
"07:54:57","42.9","42.1","97","29.73","265","0","0","0.08","0.00"
"07:59:56","43.5","42.7","97","29.74","256","0.4","3.5","0.08","0.00"
"08:04:57","43.9","43.1","96.9","29.74","249","1.1","3.5","0.08","0.00"
"08:09:59","44.2","43","95.9","29.74","279","1.2","4","0.08","0.00"
"08:14:58","44.3","42.6","93.4","29.74","278","1.3","4","0.08","0.00"
"08:19:56","44.6","41.5","88.9","29.74","265","2.6","6","0.08","0.00"
"08:24:58","45","41.4","86.8","29.74","302","2.9","7","0.08","0.00"
"08:29:56","45.7","41.3","84.6","29.74","286","3.1","6.9","0.08","0.00"
"08:34:58","46.3","42.1","85.4","29.74","307","2","5","0.08","0.00"
"08:39:56","46.8","41.5","81.6","29.74","312","3.3","10.4","0.08","0.00"
"08:44:59","46.8","40.6","79","29.74","286","3.3","7","0.08","0.00"
"08:45:09","46.7","40.5","79","29.74","245","1.9","3.5","0.08","0.00"
"08:54:58","47.1","40.9","79","29.74","346","3.1","6","0.08","0.00"
"08:59:58","47.5","40.3","76","29.74","283","3.7","9","0.08","0.00"
"09:04:56","47.6","40.4","75.9","29.74","288","3.1","8.1","0.08","0.00"
"09:09:58","47.7","40.1","74.9","29.74","288","3","9.2","0.08","0.00"
"09:14:57","47.8","40.8","76.4","29.74","269","2.4","5","0.08","0.00"
"09:19:59","48.1","40.1","73.6","29.74","286","3.7","11.5","0.08","0.00"
"09:24:56","48.3","41.3","76.4","29.74","267","2.5","5","0.08","0.00"
"09:29:59","48.5","40.9","75.1","29.74","290","2.1","6","0.08","0.00"
"09:34:57","48.2","39.9","73","29.74","287","2.8","7","0.08","0.00"
"09:39:56","48.1","40.1","73.7","29.74","261","2.6","5","0.08","0.00"
"09:44:57","48.5","40.9","74.8","29.74","267","2.3","6","0.08","0.00"
"09:49:59","49.2","40.3","71.3","29.74","246","4.7","10.4","0.08","0.00"
"09:54:57","49.4","39.3","68.2","29.74","278","4.8","11.5","0.08","0.00"
"09:59:59","49.7","40","69","29.74","264","4.7","11","0.08","0.00"
"10:04:56","50.1","39.1","65.9","29.74","289","5.4","12","0.08","0.00"
"10:09:58","49.6","38.1","64.6","29.74","258","5","11.5","0.08","0.00"
"10:14:56","49.3","37.8","64.6","29.74","288","5.2","12","0.08","0.00"
"10:19:58","48.9","36.6","62.6","29.74","276","4.8","10.4","0.08","0.00"
"10:24:56","48.5","36.3","62.5","29.74","267","5.2","10.4","0.08","0.00"
"10:29:58","48.3","36.7","64","29.75","275","5.5","12","0.08","0.00"
"10:34:56","48.3","37.1","65.1","29.75","291","4.7","12","0.08","0.00"
"10:39:59","48.3","37.1","65","29.75","296","4.8","13","0.08","0.00"
"10:44:57","48.3","36.9","64.4","29.75","290","4.2","12","0.08","0.00"
"10:49:59","48.5","37.3","65.2","29.75","239","4.1","10.4","0.08","0.00"
"10:54:57","49.4","39.7","69.2","29.75","250","4.3","12","0.08","0.00"
"10:59:56","50.7","39.7","65.9","29.75","258","4.8","11","0.08","0.00"
"11:04:57","50.7","38.7","63.3","29.75","292","4.4","12","0.08","0.00"
"11:09:58","50.7","38.4","62.4","29.75","324","5.5","12","0.08","0.00"
"11:14:57","51","39.4","64.6","29.75","258","3.4","7","0.08","0.00"
"11:19:59","51.3","39.6","64.4","29.75","261","3.1","9.2","0.08","0.00"
"11:24:57","51","38.2","61.5","29.75","268","4","12","0.08","0.00"
"11:29:59","50.6","38.6","63.1","29.75","249","4.1","9.2","0.08","0.00"
"11:34:57","50.6","38.3","62.6","29.75","260","4.3","15","0.08","0.00"
"11:39:59","51.1","39.5","64.5","29.75","318","3.5","10","0.08","0.00"
"11:44:57","51.2","38.2","60.9","29.75","319","4.8","9.2","0.08","0.00"
"11:49:59","50.6","38.1","62.1","29.74","270","4.4","11.5","0.08","0.00"
"11:54:57","50.7","39.4","65.4","29.74","262","4.3","10.4","0.08","0.00"
"11:59:58","50.9","38","61.3","29.74","317","5","11.5","0.08","0.00"
"12:04:59","50.8","38.1","61.8","29.74","271","3.3","10.4","0.08","0.00"
"12:09:57","51.1","38.3","61.6","29.74","297","4","10.4","0.08","0.00"
"12:14:56","51.6","38.4","60.6","29.74","242","4","9.2","0.08","0.00"
"12:19:58","52.3","39.2","60.9","29.74","233","4.2","12","0.08","0.00"
"12:24:59","53.2","40.6","62.1","29.74","230","2.8","6","0.08","0.00"
"12:29:57","54","38.7","56","29.74","295","5","16.1","0.08","0.00"
"12:34:56","53.1","36.7","53.6","29.73","300","4","9","0.08","0.00"
"12:39:58","52.2","36.2","54.3","29.73","252","3.5","12","0.08","0.00"
"12:44:56","51.8","37","56.9","29.73","240","3.8","7","0.08","0.00"
"12:49:58","51.8","36.5","55.9","29.73","265","2.8","11","0.08","0.00"
"12:54:59","52","36.3","55","29.73","280","4.2","11.5","0.08","0.00"
"12:59:57","52.4","36.3","54.2","29.73","269","4.2","10.4","0.08","0.00"
"13:04:58","52.2","34.9","51.7","29.73","314","4.8","10.4","0.08","0.00"
"13:09:56","52","35.8","54","29.73","238","3.2","10","0.08","0.00"
"13:14:59","52","35.5","53.3","29.73","324","5.1","12","0.08","0.00"
"13:19:57","51.9","36.5","55.5","29.73","232","4.5","7","0.08","0.00"
"13:24:59","52","37.1","56.7","29.73","255","3","8.1","0.08","0.00"
"13:29:56","52.1","37.1","56.4","29.73","332","5.1","13","0.08","0.00"
"13:34:58","52","36.7","55.9","29.73","331","5.8","11.5","0.08","0.00"
"13:39:56","51.7","36.6","56.3","29.73","336","5","10.4","0.08","0.00"
"13:44:59","51.6","36.5","56.2","29.73","315","5.3","12","0.08","0.00"
"13:49:57","51.4","37","57.6","29.73","307","4.9","14","0.08","0.00"
"13:54:59","51","36.1","56.6","29.73","270","5","14","0.08","0.00"
"13:59:57","50.1","35.7","57.6","29.73","239","3.9","8.1","0.08","0.00"
"14:04:58","49.7","35.4","57.8","29.73","324","3","9.2","0.08","0.00"
"14:09:59","49.7","35.6","58.2","29.73","336","2.6","6","0.08","0.00"
"14:14:58","50.3","35.7","57.3","29.73","303","3.2","5","0.08","0.00"
"14:19:56","51","34.9","54.1","29.73","265","2.3","10","0.08","0.00"
"14:24:58","51.4","36.3","56.2","29.73","265","2.3","10.4","0.08","0.00"
"14:29:56","52","36.1","54.6","29.73","245","2.8","6","0.08","0.00"
"14:34:58","52.2","34.9","51.6","29.72","287","2.6","6","0.08","0.00"
"14:39:57","52.4","36.4","54.5","29.72","292","2.4","6","0.08","0.00"
"14:44:59","53","36.5","53.4","29.72","198","3.4","11.5","0.08","0.00"
"14:49:57","53","36","52.5","29.71","239","3.4","6","0.08","0.00"
"14:54:59","52.6","36.1","53.3","29.71","312","3.9","11.5","0.08","0.00"
"14:59:56","52.2","36.3","54.5","29.72","312","4.7","12","0.08","0.00"
"15:04:57","51.9","35.8","54.1","29.72","309","3.9","11.5","0.08","0.00"
"15:09:58","51.8","35.5","53.7","29.72","328","3.9","8.1","0.08","0.00"
"15:14:57","51.9","35.3","53.1","29.72","327","2.9","5","0.08","0.00"
"15:19:59","52.1","36.3","54.7","29.71","307","1.8","5","0.08","0.00"
"15:24:57","52.4","35.3","52","29.71","307","1.5","5","0.08","0.00"
"15:29:59","52.7","34.8","50.5","29.71","234","3.6","9.2","0.08","0.00"
"15:34:57","52.8","34.4","49.4","29.71","258","2.5","7","0.08","0.00"
"15:39:59","52.8","34.5","49.8","29.71","237","2.6","6.9","0.08","0.00"
"15:44:57","52.7","35.1","51","29.71","184","2.5","5","0.08","0.00"
"15:49:59","52.6","34.8","50.6","29.71","192","2.1","4","0.08","0.00"
"15:54:58","52.6","34.8","50.4","29.71","214","2","4.6","0.08","0.00"
"15:59:59","52.6","34.8","50.7","29.71","223","2.7","7","0.08","0.00"
"16:04:56","52.3","33.7","49.2","29.71","236","3.5","7","0.08","0.00"
"16:09:58","52","34","50.2","29.71","240","2.6","5","0.08","0.00"
"16:14:57","51.9","34.4","51.2","29.71","229","2","5","0.08","0.00"
"16:19:59","51.7","34.9","52.5","29.71","219","3.3","6","0.08","0.00"
"16:24:57","51.6","35","53","29.71","228","3.4","6","0.08","0.00"
"16:29:58","51.5","34.9","53","29.71","224","3.3","5.8","0.08","0.00"
"16:34:57","51.5","34.9","52.8","29.71","200","3","5","0.08","0.00"
"16:39:59","51.5","35.4","54.1","29.71","190","2.6","5","0.08","0.00"
"16:44:57","51.4","35.6","54.7","29.71","195","2.9","9.2","0.08","0.00"
"16:49:59","51.3","35.7","55.1","29.71","198","1.8","4","0.08","0.00"
"16:54:57","51.3","35.8","55.4","29.71","189","3.2","5","0.08","0.00"
"16:59:59","51.2","35.8","55.4","29.71","196","2.7","4","0.08","0.00"
"17:04:57","51.2","35.9","55.8","29.71","199","3","6","0.08","0.00"
"17:09:59","51.2","36.1","56.2","29.71","225","2.9","6","0.08","0.00"
"17:14:58","51.2","36","55.9","29.71","192","2.9","5","0.08","0.00"
"17:19:59","51.3","35.9","55.4","29.71","188","3.1","6","0.08","0.00"
"17:24:57","51.3","35.9","55.5","29.71","194","3.7","7","0.08","0.00"
"17:29:59","51.4","35.1","53.6","29.72","189","3.4","7","0.08","0.00"
"17:34:58","51.4","36.1","55.8","29.72","202","2.5","5","0.08","0.00"
"17:39:56","51.4","36.3","56","29.72","189","2.4","4","0.08","0.00"
"17:44:58","51.5","35","53.1","29.72","269","2.4","5","0.08","0.00"
"17:49:56","51.6","35.2","53.4","29.72","233","2.2","4.6","0.08","0.00"
"17:54:58","51.6","35.7","54.4","29.72","235","1.9","4","0.08","0.00"
"17:59:56","51.5","34.8","52.7","29.72","234","2","4","0.08","0.00"
"18:04:57","51.4","34.7","52.7","29.72","233","1.8","3.5","0.08","0.00"
"18:09:59","51.4","35.3","54","29.72","232","1.2","3.5","0.08","0.00"
"18:14:57","51.4","34.5","52.4","29.73","263","1.4","4","0.08","0.00"
"18:19:59","51.4","34.2","51.7","29.73","284","1.7","4","0.08","0.00"
"18:24:57","51.4","34.5","52.3","29.73","287","0.4","3.5","0.08","0.00"
"18:29:59","51.4","34.7","52.7","29.73","292","1.8","4","0.08","0.00"
"18:34:57","51.4","34.3","52","29.73","315","2.1","8","0.08","0.00"
"18:39:59","51.4","33.9","51","29.73","311","4.3","13","0.08","0.00"
"18:44:57","51.5","34.7","52.7","29.73","331","5.7","12.7","0.08","0.00"
"18:49:59","51.3","34.7","53","29.73","308","3.9","11.5","0.08","0.00"
"18:54:57","51.1","35","54","29.73","310","2.8","5.8","0.08","0.00"
"18:59:59","51","34.6","53.4","29.73","335","3.8","7","0.08","0.00"
"19:04:56","50.9","34.4","52.9","29.73","331","2.4","6.9","0.08","0.00"
"19:09:58","50.9","34.2","52.7","29.73","320","1.5","4","0.08","0.00"
"19:14:57","50.7","33.6","51.9","29.73","294","2.8","6","0.08","0.00"
"19:19:59","50.4","33","51.1","29.73","301","3.3","10.4","0.08","0.00"
"19:24:58","50.1","32.5","50.5","29.73","320","3.1","6","0.08","0.00"
"19:34:59","49.7","31.7","49.8","29.74","320","2.7","5","0.08","0.00"
"19:39:58","49.6","32","50.6","29.74","300","1.9","3.5","0.08","0.00"
"19:44:56","49.4","31.9","50.9","29.75","302","1.9","3.5","0.08","0.00"
"19:49:59","49.2","32.3","52","29.75","303","2.2","4","0.08","0.00"
"19:54:57","48.9","32.4","52.9","29.75","290","2.9","7","0.08","0.00"
"19:59:59","48.7","32.7","53.8","29.76","313","6.3","15","0.08","0.00"
"20:04:57","48.5","32.9","54.5","29.76","320","6.3","12","0.08","0.00"
"20:09:58","48.3","33.1","55.4","29.76","325","5.8","13","0.08","0.00"
"20:14:58","48.1","33.5","56.8","29.77","287","3.8","7","0.08","0.00"
"20:19:56","47.8","34","58.5","29.77","321","6.2","13","0.08","0.00"
"20:24:58","47.6","34.3","59.9","29.77","6","7.3","14","0.08","0.00"
"20:29:56","47.4","34.6","61","29.78","301","5.6","13","0.08","0.00"
"20:34:59","47.2","34.8","62","29.78","284","3.1","10.4","0.08","0.00"
"20:39:58","46.9","35.1","63.1","29.78","274","4","9.2","0.08","0.00"
"20:44:56","46.7","35.2","64","29.79","289","3.2","12","0.08","0.00"
"20:49:58","46.5","34.8","63.5","29.79","299","3.5","6","0.08","0.00"
"20:54:56","46.4","34.8","63.7","29.79","292","4","12","0.08","0.00"
"20:59:55","46.4","34.6","63.3","29.80","264","3.1","12","0.08","0.00"
"21:04:57","46.4","34.7","63.6","29.80","277","2.1","11.5","0.08","0.00"
"21:09:59","46.3","34.7","63.7","29.80","253","2.6","6","0.08","0.00"
"21:14:58","46.3","34.8","64","29.80","254","2.9","6","0.08","0.00"
"21:19:57","46.4","35.1","64.6","29.80","268","2.1","4.6","0.08","0.00"
"21:24:56","46.3","35.3","65.2","29.80","276","2.3","5","0.08","0.00"
"21:29:58","46.2","35.7","66.7","29.81","248","2.3","4","0.08","0.00"
"21:34:56","46","35.8","67.2","29.81","272","3.8","10.4","0.08","0.00"
"21:39:56","45.9","35.6","67","29.81","278","3.4","6","0.08","0.00"
"21:44:50","45.8","35.6","67.3","29.82","273","2.8","9","0.08","0.00"
"21:49:56","45.7","35.6","67.6","29.82","278","2.4","9.2","0.08","0.00"
"21:54:59","45.5","35.5","67.9","29.82","282","2.9","6","0.08","0.00"
"21:59:57","45.3","35.2","67.6","29.82","292","2.1","5.8","0.08","0.00"
"22:04:58","45.2","35.4","68.1","29.82","275","2.1","9.2","0.08","0.00"
"22:09:56","45.1","35.4","68.5","29.82","266","1.7","4","0.08","0.00"
"22:14:59","45","35.2","68.2","29.82","272","2","5","0.08","0.00"
"22:19:57","44.9","34.8","67.7","29.82","292","2.8","9.2","0.08","0.00"
"22:24:59","44.8","34.6","67.2","29.82","283","3","6","0.08","0.00"
"22:29:58","44.7","34.4","67","29.82","268","2.8","7","0.08","0.00"
"22:34:56","44.5","34.2","66.9","29.82","280","2.6","6","0.08","0.00"
"22:39:59","44.4","33.8","66.3","29.82","275","2.5","5","0.08","0.00"
"22:44:57","44.3","33.7","66.2","29.82","263","2.2","5","0.08","0.00"
"22:49:56","44.1","33.7","66.8","29.82","238","2","4","0.08","0.00"
"22:54:58","43.9","33.6","67","29.82","295","3","6","0.08","0.00"
"22:59:56","43.8","33.5","66.7","29.82","271","2.4","6","0.08","0.00"
"23:04:58","43.8","33.4","66.4","29.82","280","2.9","10.4","0.08","0.00"
"23:09:59","43.8","33.5","66.7","29.82","261","2.6","5.8","0.08","0.00"
"23:14:58","43.8","33.5","66.8","29.83","269","2.4","7","0.08","0.00"
"23:19:57","43.7","33.4","66.9","29.83","282","3","6","0.08","0.00"
"23:24:59","43.6","33.4","67","29.83","258","1.7","4","0.08","0.00"
"23:29:57","43.4","33.2","67","29.83","257","1.6","5","0.08","0.00"
"23:34:56","43.3","33.2","67.5","29.83","270","1.8","10","0.08","0.00"
"23:39:59","43.2","33.1","67.3","29.83","301","2.3","10.4","0.08","0.00"
"23:44:57","43.1","33.2","67.8","29.83","277","2.9","5","0.08","0.00"
"23:49:56","43.1","33.2","67.8","29.83","306","3.3","7","0.08","0.00"
"23:54:58","43","33","67.3","29.83","304","2.5","9","0.08","0.00"
"23:59:57","43.1","32.9","67","29.83","273","2.7","9.2","0.08","0.00"
